QPF
0.00 0.00 0.00 0.00 0.00 0.00 0.00 0.00 0.00 0.00 0.00 0.00 0.01 0.00 0.00 0.00 0.01 0.01 0.01 0.01 0.02 0.04 0.07 0.07 0.08 0.10 0.20 0.31 0.19 0.17 0.12 0.09 0.11 0.16 0.19 0.20 0.19 0.23 0.17 0.13 0.10 0.10 0.09
0.00 0.00 0.00 0.00 0.00 0.00 0.00 0.00 0.00 0.00 0.00 0.00 0.00 0.00 0.00 0.01 0.01 0.01 0.01 0.01 0.01 0.02 0.06 0.08 0.08 0.10 0.18 0.26 0.22 0.18 0.13 0.10 0.11 0.15 0.19 0.22 0.20 0.22 0.14 0.11 0.10 0.09 0.09
0.00 0.00 0.00 0.00 0.00 0.00 0.00 0.00 0.00 0.00 0.00 0.00 0.00 0.00 0.00 0.01 0.01 0.01 0.01 0.00 0.01 0.02 0.03 0.06 0.08 0.08 0.13 0.19 0.23 0.20 0.14 0.10 0.08 0.10 0.18 0.23 0.21 0.20 0.15 0.11 0.12 0.10 0.08
0.00 0.00 0.00 0.00 0.00 0.00 0.00 0.00 0.00 0.00 0.01 0.01 0.01 0.02 0.01 0.02 0.02 0.01 0.01 0.01 0.01 0.01 0.02 0.04 0.06 0.07 0.11 0.17 0.19 0.17 0.12 0.08 0.06 0.07 0.12 0.16 0.18 0.18 0.16 0.14 0.13 0.10 0.07
0.00 0.00 0.00 0.00 0.00 0.00 0.00 0.00 0.00 0.00 0.00 0.01 0.01 0.01 0.01 0.02 0.02 0.02 0.01 0.01 0.01 0.01 0.01 0.03 0.04 0.05 0.08 0.13 0.16 0.14 0.09 0.07 0.06 0.05 0.07 0.11 0.12 0.15 0.14 0.13 0.11 0.09 0.06
0.00 0.00 0.00 0.00 0.00 0.00 0.00 0.00 0.00 0.00 0.00 0.01 0.00 0.00 0.01 0.02 0.02 0.01 0.01 0.01 0.01 0.01 0.01 0.01 0.02 0.03 0.05 0.08 0.11 0.12 0.10 0.08 0.07 0.06 0.06 0.08 0.09 0.10 0.10 0.09 0.08 0.06 0.05
0.00 0.00 0.00 0.00 0.00 0.00 0.00 0.00 0.00 0.00 0.00 0.00 0.00 0.00 0.00 0.01 0.01 0.02 0.01 0.01 0.01 0.01 0.02 0.02 0.02 0.02 0.03 0.04 0.06 0.08 0.08 0.09 0.08 0.08 0.08 0.08 0.09 0.09 0.08 0.06 0.06 0.04 0.03
0.00 0.00 0.00 0.00 0.00 0.00 0.00 0.00 0.00 0.00 0.00 0.00 0.00 0.00 0.00 0.01 0.01 0.01 0.01 0.02 0.03 0.02 0.02 0.02 0.02 0.02 0.03 0.03 0.03 0.04 0.05 0.07 0.10 0.10 0.10 0.09 0.09 0.07 0.08 0.06 0.05 0.04 0.03
0.00 0.00 0.00 0.00 0.00 0.00 0.00 0.00 0.00 0.00 0.00 0.00 0.00 0.00 0.00 0.01 0.01 0.01 0.02 0.02 0.03 0.04 0.04 0.03 0.03 0.03 0.03 0.05 0.05 0.04 0.04 0.04 0.07 0.10 0.11 0.11 0.09 0.07 0.08 0.07 0.06 0.04 0.04
0.00 0.00 0.00 0.00 0.00 0.00 0.00 0.00 0.00 0.00 0.00 0.00 0.00 0.00 0.00 0.00 0.01 0.01 0.01 0.02 0.03 0.04 0.03 0.03 0.04 0.04 0.03 0.04 0.05 0.04 0.04 0.03 0.06 0.09 0.11 0.12 0.10 0.09 0.08 0.08 0.08 0.06 0.04
0.00 0.00 0.00 0.00 0.00 0.00 0.00 0.00 0.00 0.00 0.00 0.00 0.00 0.00 0.00 0.00 0.00 0.01 0.00 0.01 0.02 0.02 0.02 0.03 0.04 0.05 0.04 0.03 0.02 0.02 0.03 0.03 0.04 0.05 0.09 0.11 0.13 0.11 0.10 0.10 0.09 0.09 0.06
0.00 0.00 0.00 0.00 0.00 0.00 0.00 0.00 0.00 0.00 0.00 0.00 0.00 0.00 0.00 0.00 0.00 0.00 0.00 0.01 0.01 0.02 0.01 0.01 0.02 0.03 0.04 0.03 0.02 0.03 0.03 0.04 0.03 0.04 0.06 0.08 0.10 0.12 0.11 0.11 0.11 0.10 0.09
0.00 0.00 0.00 0.00 0.00 0.00 0.00 0.00 0.00 0.00 0.00 0.00 0.00 0.00 0.00 0.00 0.00 0.00 0.00 0.01 0.01 0.01 0.01 0.01 0.02 0.01 0.02 0.03 0.02 0.03 0.04 0.04 0.04 0.04 0.05 0.05 0.06 0.08 0.11 0.10 0.12 0.14 0.15
0.00 0.00 0.00 0.00 0.01 0.01 0.01 0.01 0.01 0.00 0.00 0.00 0.00 0.00 0.00 0.00 0.00 0.00 0.00 0.00 0.01 0.02 0.01 0.00 0.01 0.01 0.01 0.02 0.04 0.03 0.03 0.04 0.04 0.04 0.06 0.06 0.05 0.06 0.09 0.09 0.10 0.14 0.15
0.00 0.00 0.00 0.00 0.00 0.01 0.01 0.01 0.01 0.00 0.00 0.00 0.00 0.00 0.00 0.00 0.00 0.00 0.00 0.00 0.01 0.01 0.00 0.00 0.00 0.01 0.01 0.02 0.03 0.02 0.02 0.04 0.05 0.05 0.05 0.06 0.06 0.04 0.05 0.05 0.06 0.08 0.11
0.00 0.00 0.00 0.00 0.00 0.00 0.01 0.01 0.01 0.01 0.00 0.00 0.00 0.00 0.00 0.00 0.00 0.00 0.00 0.00 0.00 0.00 0.00 0.00 0.00 0.00 0.01 0.02 0.02 0.01 0.01 0.02 0.04 0.05 0.05 0.05 0.05 0.04 0.03 0.03 0.04 0.05 0.06
0.00 0.00 0.00 0.00 0.00 0.00 0.01 0.01 0.01 0.01 0.01 0.00 0.00 0.00 0.00 0.00 0.00 0.00 0.00 0.00 0.00 0.00 0.00 0.00 0.00 0.00 0.00 0.01 0.02 0.01 0.01 0.01 0.03 0.05 0.04 0.05 0.06 0.05 0.04 0.04 0.05 0.06 0.06
0.00 0.00 0.00 0.00 0.00 0.00 0.00 0.01 0.01 0.02 0.01 0.00 0.00 0.00 0.00 0.00 0.00 0.00 0.00 0.00 0.00 0.00 0.00 0.00 0.00 0.00 0.00 0.01 0.02 0.02 0.01 0.02 0.03 0.05 0.05 0.05 0.05 0.05 0.05 0.05 0.05 0.05 0.06
0.00 0.00 0.00 0.00 0.00 0.00 0.00 0.01 0.01 0.02 0.02 0.00 0.00 0.00 0.00 0.00 0.00 0.00 0.00 0.00 0.00 0.00 0.00 0.00 0.00 0.00 0.01 0.01 0.01 0.02 0.02 0.03 0.03 0.04 0.06 0.04 0.04 0.04 0.04 0.04 0.04 0.04 0.04
0.00 0.00 0.00 0.00 0.00 0.00 0.00 0.01 0.02 0.02 0.02 0.00 0.00 0.00 0.00 0.00 0.00 0.00 0.00 0.00 0.00 0.00 0.00 0.00 0.00 0.01 0.01 0.01 0.01 0.02 0.02 0.03 0.04 0.03 0.04 0.04 0.03 0.03 0.04 0.04 0.03 0.03 0.03
0.00 0.00 0.00 0.00 0.00 0.00 0.00 0.01 0.03 0.02 0.01 0.00 0.00 0.00 0.00 0.00 0.00 0.00 0.00 0.00 0.00 0.00 0.00 0.01 0.00 0.01 0.01 0.01 0.02 0.03 0.02 0.03 0.04 0.04 0.04 0.03 0.03 0.02 0.02 0.03 0.04 0.03 0.02
0.00 0.00 0.00 0.00 0.00 0.00 0.00 0.01 0.03 0.02 0.01 0.00 0.00 0.00 0.00 0.00 0.00 0.00 0.00 0.00 0.00 0.00 0.00 0.01 0.01 0.01 0.01 0.01 0.02 0.03 0.04 0.04 0.03 0.03 0.03 0.03 0.03 0.02 0.02 0.02 0.03 0.03 0.03
0.00 0.00 0.00 0.00 0.00 0.00 0.01 0.02 0.03 0.02 0.00 0.00 0.00 0.00 0.00 0.00 0.00 0.00 0.00 0.00 0.00 0.00 0.01 0.01 0.01 0.01 0.01 0.01 0.02 0.03 0.04 0.05 0.04 0.04 0.04 0.04 0.03 0.03 0.03 0.03 0.03 0.03 0.03
0.00 0.00 0.00 0.00 0.00 0.00 0.00 0.01 0.02 0.01 0.00 0.00 0.00 0.00 0.00 0.00 0.00 0.00 0.00 0.00 0.00 0.00 0.00 0.01 0.01 0.01 0.01 0.00 0.01 0.03 0.05 0.07 0.07 0.06 0.06 0.05 0.03 0.03 0.04 0.04 0.04 0.04 0.04
0.00 0.00 0.00 0.00 0.00 0.00 0.00 0.01 0.02 0.01 0.00 0.00 0.00 0.00 0.00 0.00 0.00 0.00 0.00 0.00 0.01 0.01 0.01 0.01 0.02 0.01 0.01 0.01 0.01 0.02 0.04 0.07 0.08 0.07 0.06 0.05 0.03 0.03 0.04 0.05 0.04 0.04 0.04
0.00 0.00 0.00 0.00 0.00 0.00 0.00 0.00 0.01 0.01 0.00 0.00 0.00 0.00 0.00 0.00 0.01 0.01 0.01 0.01 0.02 0.02 0.02 0.02 0.02 0.01 0.01 0.01 0.01 0.02 0.03 0.07 0.08 0.08 0.07 0.06 0.04 0.03 0.03 0.03 0.04 0.05 0.05
MSLP
1017.79 1017.67 1017.52 1017.35 1017.16 1016.94 1016.70 1016.44 1016.16 1015.87 1015.59 1015.33 1015.12 1014.96 1014.86 1014.81 1014.79 1014.78 1014.76 1014.72 1014.66 1014.59 1014.50 1014.43 1014.38 1014.36 1014.37 1014.39 1014.42 1014.45 1014.48 1014.51 1014.56 1014.64 1014.77 1014.93 1015.14 1015.36 1015.59 1015.81 1016.00 1016.17 1016.33
1018.14 1018.01 1017.84 1017.65 1017.44 1017.21 1016.97 1016.70 1016.43 1016.16 1015.90 1015.67 1015.49 1015.35 1015.27 1015.21 1015.18 1015.15 1015.11 1015.05 1014.97 1014.89 1014.80 1014.74 1014.70 1014.68 1014.69 1014.71 1014.73 1014.76 1014.78 1014.81 1014.87 1014.97 1015.11 1015.31 1015.53 1015.78 1016.03 1016.25 1016.44 1016.60 1016.73
1018.47 1018.33 1018.17 1017.99 1017.78 1017.56 1017.32 1017.07 1016.82 1016.57 1016.34 1016.14 1015.97 1015.85 1015.76 1015.69 1015.62 1015.54 1015.45 1015.34 1015.22 1015.11 1015.02 1014.95 1014.92 1014.92 1014.95 1014.98 1015.02 1015.05 1015.07 1015.11 1015.18 1015.28 1015.44 1015.65 1015.89 1016.15 1016.41 1016.65 1016.84 1016.99 1017.11
1018.74 1018.63 1018.49 1018.34 1018.16 1017.97 1017.76 1017.53 1017.30 1017.08 1016.88 1016.70 1016.55 1016.42 1016.32 1016.21 1016.09 1015.95 1015.79 1015.61 1015.43 1015.28 1015.15 1015.08 1015.06 1015.08 1015.12 1015.18 1015.24 1015.28 1015.32 1015.37 1015.43 1015.54 1015.70 1015.91 1016.16 1016.44 1016.70 1016.94 1017.15 1017.30 1017.43
1018.95 1018.86 1018.77 1018.67 1018.55 1018.40 1018.23 1018.04 1017.84 1017.65 1017.46 1017.30 1017.16 1017.04 1016.91 1016.76 1016.59 1016.38 1016.14 1015.89 1015.65 1015.43 1015.27 1015.18 1015.15 1015.18 1015.24 1015.32 1015.39 1015.45 1015.50 1015.55 1015.62 1015.72 1015.88 1016.08 1016.32 1016.59 1016.87 1017.12 1017.34 1017.52 1017.66
1019.08 1019.03 1018.99 1018.94 1018.88 1018.79 1018.68 1018.53 1018.37 1018.20 1018.05 1017.91 1017.78 1017.65 1017.51 1017.34 1017.13 1016.87 1016.56 1016.24 1015.93 1015.66 1015.45 1015.32 1015.27 1015.28 1015.34 1015.42 1015.50 1015.57 1015.62 1015.67 1015.73 1015.82 1015.96 1016.14 1016.37 1016.63 1016.90 1017.17 1017.40 1017.61 1017.79
1019.13 1019.11 1019.12 1019.14 1019.14 1019.11 1019.04 1018.94 1018.82 1018.69 1018.56 1018.45 1018.35 1018.24 1018.11 1017.94 1017.71 1017.42 1017.08 1016.71 1016.35 1016.02 1015.76 1015.58 1015.49 1015.47 1015.50 1015.56 1015.62 1015.68 1015.72 1015.75 1015.80 1015.87 1015.98 1016.14 1016.34 1016.58 1016.84 1017.10 1017.35 1017.59 1017.82
1019.13 1019.14 1019.19 1019.25 1019.30 1019.32 1019.31 1019.25 1019.16 1019.07 1018.98 1018.90 1018.84 1018.77 1018.67 1018.53 1018.32 1018.04 1017.70 1017.31 1016.92 1016.55 1016.24 1016.00 1015.85 1015.77 1015.75 1015.76 1015.78 1015.80 1015.82 1015.83 1015.85 1015.89 1015.97 1016.09 1016.26 1016.47 1016.70 1016.95 1017.21 1017.48 1017.74
1019.14 1019.15 1019.22 1019.31 1019.40 1019.45 1019.47 1019.44 1019.39 1019.33 1019.28 1019.25 1019.24 1019.23 1019.19 1019.10 1018.95 1018.71 1018.39 1018.02 1017.62 1017.23 1016.87 1016.57 1016.35 1016.19 1016.09 1016.03 1016.00 1015.97 1015.95 1015.92 1015.92 1015.93 1015.97 1016.06 1016.18 1016.34 1016.54 1016.76 1017.01 1017.27 1017.55
1019.20 1019.21 1019.28 1019.37 1019.46 1019.53 1019.56 1019.56 1019.53 1019.51 1019.50 1019.52 1019.55 1019.60 1019.63 1019.61 1019.52 1019.35 1019.09 1018.75 1018.36 1017.96 1017.57 1017.21 1016.91 1016.67 1016.49 1016.35 1016.25 1016.16 1016.09 1016.04 1016.01 1015.99 1016.01 1016.05 1016.13 1016.24 1016.38 1016.55 1016.76 1017.01 1017.28
1019.38 1019.36 1019.41 1019.48 1019.56 1019.62 1019.65 1019.65 1019.64 1019.63 1019.65 1019.71 1019.79 1019.89 1019.98 1020.03 1020.01 1019.90 1019.69 1019.40 1019.04 1018.64 1018.23 1017.83 1017.46 1017.14 1016.88 1016.66 1016.48 1016.34 1016.23 1016.15 1016.10 1016.07 1016.06 1016.07 1016.10 1016.16 1016.23 1016.35 1016.50 1016.69 1016.94
1019.69 1019.64 1019.65 1019.69 1019.73 1019.77 1019.78 1019.77 1019.76 1019.76 1019.79 1019.87 1019.98 1020.10 1020.23 1020.32 1020.35 1020.29 1020.14 1019.89 1019.56 1019.17 1018.75 1018.32 1017.90 1017.52 1017.18 1016.89 1016.66 1016.47 1016.33 1016.23 1016.17 1016.13 1016.11 1016.09 1016.08 1016.09 1016.10 1016.14 1016.22 1016.35 1016.55
1020.14 1020.06 1020.02 1020.01 1020.01 1020.00 1019.98 1019.95 1019.93 1019.93 1019.96 1020.03 1020.13 1020.26 1020.39 1020.50 1020.55 1020.51 1020.39 1020.17 1019.87 1019.50 1019.07 1018.62 1018.18 1017.75 1017.36 1017.02 1016.74 1016.52 1016.36 1016.25 1016.19 1016.14 1016.12 1016.09 1016.05 1016.01 1015.96 1015.94 1015.95 1016.01 1016.14
1020.70 1020.59 1020.51 1020.44 1020.39 1020.34 1020.29 1020.23 1020.19 1020.16 1020.17 1020.22 1020.30 1020.40 1020.50 1020.58 1020.61 1020.58 1020.46 1020.26 1019.98 1019.62 1019.21 1018.76 1018.30 1017.85 1017.43 1017.06 1016.75 1016.50 1016.32 1016.21 1016.14 1016.10 1016.07 1016.03 1015.98 1015.90 1015.82 1015.74 1015.68 1015.68 1015.75
1021.32 1021.18 1021.06 1020.95 1020.86 1020.77 1020.68 1020.60 1020.53 1020.49 1020.47 1020.48 1020.51 1020.55 1020.60 1020.63 1020.62 1020.55 1020.42 1020.22 1019.95 1019.62 1019.23 1018.79 1018.34 1017.88 1017.45 1017.05 1016.72 1016.45 1016.25 1016.12 1016.04 1015.99 1015.96 1015.92 1015.85 1015.76 1015.65 1015.53 1015.44 1015.39 1015.42
1021.95 1021.79 1021.64 1021.50 1021.37 1021.25 1021.15 1021.05 1020.96 1020.90 1020.85 1020.81 1020.79 1020.77 1020.74 1020.70 1020.63 1020.52 1020.37 1020.17 1019.90 1019.59 1019.22 1018.81 1018.37 1017.92 1017.48 1017.07 1016.71 1016.41 1016.18 1016.02 1015.91 1015.85 1015.80 1015.75 1015.68 1015.58 1015.46 1015.33 1015.22 1015.15 1015.15
1022.53 1022.37 1022.20 1022.04 1021.89 1021.76 1021.65 1021.54 1021.45 1021.37 1021.30 1021.22 1021.15 1021.06 1020.97 1020.86 1020.73 1020.57 1020.39 1020.18 1019.93 1019.63 1019.30 1018.91 1018.50 1018.06 1017.61 1017.18 1016.78 1016.44 1016.16 1015.95 1015.80 1015.69 1015.61 1015.54 1015.45 1015.35 1015.23 1015.12 1015.02 1014.95 1014.95
1023.04 1022.88 1022.71 1022.54 1022.39 1022.26 1022.15 1022.05 1021.97 1021.88 1021.79 1021.69 1021.57 1021.43 1021.28 1021.11 1020.93 1020.74 1020.54 1020.32 1020.08 1019.80 1019.50 1019.14 1018.75 1018.31 1017.86 1017.40 1016.96 1016.56 1016.21 1015.93 1015.71 1015.54 1015.41 1015.29 1015.19 1015.09 1014.98 1014.88 1014.80 1014.76 1014.78
1023.46 1023.30 1023.14 1022.98 1022.84 1022.72 1022.62 1022.54 1022.46 1022.38 1022.28 1022.16 1022.01 1021.84 1021.65 1021.44 1021.22 1021.00 1020.79 1020.57 1020.34 1020.09 1019.80 1019.47 1019.09 1018.66 1018.19 1017.70 1017.21 1016.74 1016.32 1015.95 1015.64 1015.39 1015.19 1015.03 1014.89 1014.77 1014.67 1014.60 1014.55 1014.54 1014.59
1023.78 1023.64 1023.49 1023.35 1023.23 1023.12 1023.04 1022.96 1022.89 1022.81 1022.70 1022.57 1022.41 1022.22 1022.00 1021.77 1021.53 1021.30 1021.08 1020.86 1020.64 1020.41 1020.14 1019.83 1019.45 1019.02 1018.54 1018.01 1017.48 1016.94 1016.44 1015.98 1015.59 1015.25 1014.97 1014.74 1014.56 1014.41 1014.31 1014.24 1014.22 1014.24 1014.31
1024.02 1023.90 1023.78 1023.65 1023.54 1023.45 1023.36 1023.29 1023.21 1023.13 1023.01 1022.87 1022.70 1022.49 1022.26 1022.02 1021.78 1021.54 1021.32 1021.10 1020.89 1020.66 1020.40 1020.09 1019.72 1019.29 1018.79 1018.24 1017.67 1017.08 1016.51 1015.98 1015.50 1015.08 1014.72 1014.42 1014.19 1014.00 1013.87 1013.80 1013.78 1013.82 1013.92
1024.18 1024.09 1023.99 1023.88 1023.78 1023.68 1023.59 1023.50 1023.40 1023.29 1023.17 1023.01 1022.82 1022.61 1022.37 1022.13 1021.88 1021.64 1021.41 1021.20 1020.98 1020.75 1020.48 1020.17 1019.80 1019.36 1018.86 1018.30 1017.71 1017.09 1016.49 1015.90 1015.36 1014.87 1014.45 1014.08 1013.78 1013.54 1013.37 1013.27 1013.24 1013.28 1013.38
1024.29 1024.23 1024.14 1024.04 1023.93 1023.82 1023.69 1023.57 1023.44 1023.30 1023.14 1022.96 1022.76 1022.53 1022.29 1022.05 1021.80 1021.56 1021.32 1021.09 1020.86 1020.61 1020.33 1020.01 1019.63 1019.19 1018.70 1018.15 1017.56 1016.94 1016.33 1015.73 1015.15 1014.62 1014.14 1013.71 1013.35 1013.05 1012.83 1012.68 1012.62 1012.63 1012.72
1024.34 1024.30 1024.23 1024.12 1023.99 1023.85 1023.68 1023.51 1023.33 1023.14 1022.94 1022.74 1022.51 1022.28 1022.04 1021.79 1021.53 1021.28 1021.03 1020.78 1020.52 1020.25 1019.94 1019.60 1019.22 1018.78 1018.30 1017.77 1017.21 1016.63 1016.04 1015.45 1014.88 1014.32 1013.81 1013.33 1012.91 1012.55 1012.26 1012.05 1011.94 1011.91 1011.98
1024.34 1024.32 1024.24 1024.12 1023.96 1023.77 1023.56 1023.33 1023.09 1022.86 1022.62 1022.38 1022.14 1021.90 1021.66 1021.41 1021.15 1020.88 1020.61 1020.33 1020.03 1019.72 1019.38 1019.02 1018.62 1018.19 1017.73 1017.24 1016.72 1016.19 1015.64 1015.09 1014.54 1013.99 1013.46 1012.95 1012.47 1012.05 1011.69 1011.41 1011.24 1011.16 1011.19
1024.28 1024.26 1024.18 1024.03 1023.84 1023.60 1023.33 1023.05 1022.76 1022.48 1022.21 1021.96 1021.71 1021.47 1021.22 1020.97 1020.71 1020.43 1020.14 1019.82 1019.48 1019.12 1018.74 1018.35 1017.93 1017.50 1017.05 1016.60 1016.13 1015.66 1015.17 1014.67 1014.15 1013.62 1013.08 1012.55 1012.03 1011.55 1011.12 1010.78 1010.54 1010.42 1010.41
Thickness
5718 5716 5715 5713 5712 5710 5709 5708 5707 5706 5706 5706 5707 5707 5708 5709 5710 5712 5715 5718 5721 5723 5726 5729 5732 5735 5737 5740 5744 5747 5749 5751 5753 5755 5757 5757 5758 5759 5760 5761 5762 5762 5763
5716 5715 5713 5711 5709 5708 5706 5705 5704 5703 5703 5703 5703 5704 5705 5706 5707 5709 5712 5715 5717 5720 5723 5727 5730 5733 5735 5739 5743 5745 5746 5748 5750 5752 5753 5754 5755 5756 5757 5758 5759 5759 5760
5715 5713 5711 5709 5707 5706 5705 5704 5702 5701 5701 5700 5700 5701 5702 5703 5704 5706 5709 5712 5714 5717 5720 5724 5727 5730 5733 5735 5739 5741 5743 5744 5747 5748 5750 5751 5752 5753 5754 5756 5756 5757 5757
5713 5711 5709 5707 5706 5704 5703 5701 5699 5698 5697 5696 5696 5697 5698 5700 5702 5704 5706 5708 5711 5714 5717 5721 5724 5727 5730 5733 5735 5738 5739 5741 5744 5745 5746 5748 5749 5750 5752 5754 5754 5753 5754
5711 5710 5708 5706 5704 5703 5701 5699 5697 5695 5694 5693 5694 5695 5695 5697 5698 5701 5703 5705 5708 5711 5714 5718 5721 5724 5727 5730 5732 5734 5736 5738 5740 5742 5743 5745 5746 5747 5750 5752 5751 5750 5750
5710 5708 5706 5704 5703 5701 5699 5697 5695 5694 5692 5691 5692 5692 5692 5694 5695 5697 5699 5702 5705 5708 5711 5714 5717 5721 5724 5726 5729 5731 5733 5735 5737 5739 5741 5742 5743 5744 5745 5747 5747 5747 5748
5708 5707 5705 5703 5701 5698 5696 5695 5694 5692 5690 5690 5689 5688 5689 5691 5692 5694 5696 5699 5701 5704 5707 5711 5713 5716 5720 5723 5726 5728 5730 5732 5734 5736 5738 5739 5740 5741 5742 5743 5744 5744 5745
5707 5706 5703 5701 5700 5698 5696 5694 5692 5689 5688 5687 5684 5682 5680 5683 5687 5690 5692 5695 5697 5701 5704 5707 5710 5713 5716 5719 5722 5725 5727 5729 5731 5733 5734 5736 5737 5738 5739 5740 5741 5742 5743
5707 5705 5703 5701 5699 5697 5694 5693 5691 5689 5685 5685 5683 5680 5676 5673 5677 5684 5688 5690 5693 5697 5700 5704 5707 5710 5713 5715 5718 5721 5723 5725 5727 5729 5731 5733 5734 5735 5736 5737 5738 5739 5740
5706 5704 5703 5701 5699 5696 5694 5692 5690 5688 5686 5682 5682 5680 5679 5677 5675 5676 5683 5687 5690 5693 5696 5700 5703 5706 5709 5712 5715 5717 5720 5722 5724 5726 5728 5730 5732 5733 5734 5735 5736 5737 5737
5705 5704 5702 5700 5698 5696 5694 5692 5690 5688 5685 5683 5680 5679 5678 5677 5676 5674 5674 5680 5685 5689 5693 5696 5700 5703 5705 5708 5711 5713 5716 5719 5721 5723 5725 5727 5729 5730 5732 5733 5734 5734 5735
5703 5703 5701 5699 5697 5696 5694 5692 5690 5688 5685 5683 5681 5679 5677 5676 5674 5673 5672 5675 5678 5685 5690 5694 5696 5699 5702 5704 5707 5710 5712 5715 5717 5720 5721 5723 5725 5727 5729 5730 5731 5732 5733
5701 5700 5700 5698 5697 5695 5693 5692 5689 5687 5685 5683 5681 5679 5678 5676 5676 5675 5674 5674 5676 5681 5686 5691 5694 5696 5699 5701 5703 5706 5709 5711 5713 5716 5718 5719 5721 5723 5725 5727 5728 5729 5730
5700 5700 5698 5697 5695 5694 5692 5691 5688 5687 5685 5683 5682 5680 5679 5678 5677 5676 5675 5674 5674 5676 5681 5685 5691 5693 5695 5697 5700 5702 5705 5707 5709 5711 5714 5716 5717 5719 5721 5722 5724 5726 5727
5700 5699 5697 5696 5694 5692 5690 5689 5687 5685 5684 5683 5681 5680 5679 5678 5678 5677 5676 5675 5673 5672 5675 5681 5685 5690 5692 5694 5696 5698 5700 5703 5705 5707 5709 5711 5713 5715 5716 5718 5720 5722 5724
5698 5697 5695 5693 5691 5690 5688 5686 5685 5684 5682 5681 5680 5679 5679 5678 5677 5677 5676 5674 5673 5672 5672 5677 5681 5685 5688 5690 5692 5694 5696 5698 5701 5703 5705 5707 5708 5710 5711 5713 5715 5717 5719
5696 5694 5692 5691 5688 5686 5685 5684 5682 5681 5680 5679 5678 5677 5677 5676 5675 5675 5674 5673 5672 5671 5670 5674 5677 5680 5683 5685 5687 5689 5691 5693 5696 5698 5700 5702 5703 5705 5706 5708 5710 5712 5714
5693 5691 5690 5687 5685 5684 5682 5680 5679 5679 5677 5676 5675 5675 5674 5674 5673 5672 5671 5670 5670 5669 5668 5669 5673 5675 5677 5679 5681 5684 5686 5688 5690 5693 5695 5697 5698 5700 5702 5703 5705 5707 5708
5689 5688 5686 5683 5682 5680 5679 5677 5676 5675 5674 5673 5672 5671 5670 5670 5669 5669 5668 5667 5666 5666 5665 5664 5666 5669 5671 5673 5674 5677 5679 5682 5684 5687 5689 5691 5693 5694 5696 5698 5699 5701 5703
5685 5683 5681 5679 5678 5676 5675 5674 5673 5671 5670 5669 5668 5668 5667 5666 5665 5665 5664 5663 5662 5661 5659 5659 5660 5661 5663 5665 5665 5667 5669 5673 5676 5680 5683 5685 5687 5689 5691 5693 5694 5696 5697
5681 5678 5676 5674 5673 5672 5671 5670 5669 5667 5665 5664 5663 5663 5663 5663 5662 5661 5660 5658 5657 5654 5653 5651 5652 5653 5654 5654 5656 5657 5659 5663 5668 5672 5674 5678 5680 5682 5685 5686 5688 5690 5692
5675 5673 5670 5668 5667 5667 5667 5666 5664 5661 5659 5657 5656 5656 5657 5657 5657 5656 5655 5653 5651 5648 5645 5644 5644 5644 5646 5647 5647 5648 5649 5652 5657 5663 5664 5669 5672 5675 5678 5680 5683 5684 5686
5668 5666 5664 5662 5661 5660 5661 5660 5659 5655 5653 5651 5650 5649 5650 5650 5649 5648 5647 5646 5643 5641 5639 5637 5636 5637 5638 5640 5639 5640 5641 5644 5648 5653 5654 5659 5663 5666 5671 5674 5676 5678 5679
5661 5659 5657 5655 5653 5654 5654 5653 5652 5648 5645 5643 5642 5641 5640 5640 5640 5639 5638 5637 5634 5633 5631 5629 5629 5629 5631 5631 5631 5632 5633 5635 5640 5643 5645 5649 5654 5658 5662 5666 5669 5670 5672
5654 5652 5650 5648 5646 5645 5645 5644 5643 5639 5636 5635 5634 5633 5631 5630 5631 5630 5627 5625 5624 5624 5623 5621 5620 5620 5620 5621 5620 5620 5621 5623 5628 5634 5635 5638 5644 5647 5652 5656 5660 5662 5664
5646 5644 5642 5640 5637 5636 5636 5635 5634 5630 5627 5625 5624 5623 5622 5620 5619 5618 5614 5611 5610 5611 5611 5611 5610 5609 5608 5608 5609 5609 5610 5611 5615 5621 5627 5627 5633 5635 5640 5646 5649 5652 5654